Regional Weather Roundup
Issued by NWS

Home | Current Version | Previous Version | Text Only | Print | Product List | Glossary Off
Versions: 1 2 3 4 5 6 7 8 9 10 11 12 13 14 15 16 17 18 19 20 21 22 23 24 25 26 27 28 29 30 31 32 33 34 35 36 37 38 39 40 41 42 43 44 45 46 47 48 49 50

000
ASUS43 KTOP 312159
RWRKS

WEATHER ROUNDUP FOR KANSAS
NATIONAL WEATHER SERVICE GOODLAND KS
500 PM CDT FRI JUL 31 2015

NOTE:  "FAIR" INDICATES FEW OR NO CLOUDS BELOW 12,000 FEET WITH NO
SIGNIFICANT WEATHER AND/OR OBSTRUCTIONS TO VISIBILITY.

KSZ001>006-013>018-027>032-041>047-312300-
NORTHWEST KANSAS

CITY           SKY/WX    TMP DP  RH WIND       PRES   REMARKS
GOODLAND       MOSUNNY   89  58  34 S12       30.17F
HAYS           SUNNY     91  63  38 S8        30.09F
HILL CITY      SUNNY     93  59  31 VRB5      30.10F
RUSSELL        SUNNY     93  61  34 S6        30.08F
$$

KSZ061>065-074>080-084>089-312300-
SOUTHWEST KANSAS

CITY           SKY/WX    TMP DP  RH WIND       PRES   REMARKS
DODGE CITY     MOSUNNY   88  62  41 CALM      30.13F
ELKHART          N/A     81  63  54 SE8         N/A
GARDEN CITY    SUNNY     87  62  43 S5        30.14F
GREAT BEND     MOSUNNY   90  66  45 S7        30.08F
LIBERAL        MOSUNNY   84  63  48 NE9       30.13F
$$

KSZ066>073-081>083-090>101-312300-
SOUTHEAST KANSAS

CITY           SKY/WX    TMP DP  RH WIND       PRES   REMARKS
CHANUTE        MOSUNNY   91  67  44 CALM      30.07F
COFFEYVILLE    PTSUNNY   91  72  53 S7        30.06F HX  98
HUTCHINSON     MOSUNNY   90  67  46 SE6       30.09F
MEDICINE LODGE   N/A     89  69  51 SW5       30.08F
NEWTON         MOSUNNY   90  66  45 S3        30.12F
PARSONS        SUNNY     88  74  63 CALM      30.08F HX  96
WICHITA INTL   MOSUNNY   89  67  47 CALM      30.08F
WICHITA JABRA  MOSUNNY   91  68  46 NE6       30.08F HX  95
WINFIELD       PTSUNNY   90  72  55 N3        30.08F HX  97
$$

KSZ007>012-019>026-033>040-048>060-102>105-312300-
NORTHEAST KANSAS

CITY           SKY/WX    TMP DP  RH WIND       PRES   REMARKS
CONCORDIA      SUNNY     91  64  40 S9        30.07F
EMPORIA        SUNNY     90  66  45 CALM      30.08F
LAWRENCE       SUNNY     90  69  50 N5        30.07F
MANHATTAN      SUNNY     92  69  47 W5        30.06F HX  97
OLATHE IND     SUNNY     88  66  48 N7        30.09F
OLATHE EXE     SUNNY     89  62  40 NW3       30.08F
SALINA         SUNNY     92  68  45 S8        30.07F HX  96
TOPEKA BILLARD SUNNY     89  66  46 SE3       30.07F
TOPEKA FORBES  SUNNY     91  66  43 N5        30.08F
$$



USA.gov is the U.S. government's official web portal to all federal, state and local government web resources and services.